カタログに戻る

DELTA 1 DEB

運用中SSO
NORAD 2223·DEBRIS·🇺🇸 United States

打ち上げ Feb 28, 1966 から Cape Canaveral Space Force Station

Loading…

次のパス (今後24時間)

TLE

最新Source: Space-Track

元期: Sep 14, 2026, 00:26 UTC

1 02223U 66016C   26257.01858163 -.00000031  00000-0  46742-4 0  9994
2 02223 100.7252 282.3229 0093925  22.7355   7.1861 12.87776937838399

AllMySatでDELTA 1 DEBをリアルタイム追跡

Download on the App Store